"Time","Value","Approval","myLocation"
"2023-03-30 00:00",1.609,"Working","OW196"
"2023-03-30 01:00",1.611,"Working","OW196"
"2023-03-30 02:00",1.613,"Working","OW196"
"2023-03-30 03:00",1.615,"Working","OW196"
"2023-03-30 04:00",1.615,"Working","OW196"
"2023-03-30 05:00",1.615,"Working","OW196"
"2023-03-30 06:00",1.613,"Working","OW196"
"2023-03-30 07:00",1.612,"Working","OW196"
"2023-03-30 08:00",1.61,"Working","OW196"
"2023-03-30 09:00",1.609,"Working","OW196"
"2023-03-30 10:00",1.609,"Working","OW196"
"2023-03-30 11:00",1.61,"Working","OW196"
"2023-03-30 12:00",1.611,"Working","OW196"
"2023-03-30 13:00",1.613,"Working","OW196"
"2023-03-30 14:00",1.616,"Working","OW196"
"2023-03-30 15:00",1.619,"Working","OW196"
"2023-03-30 16:00",1.622,"Working","OW196"
"2023-03-30 17:00",1.624,"Working","OW196"
"2023-03-30 18:00",1.626,"Working","OW196"
"2023-03-30 19:00",1.626,"Working","OW196"
"2023-03-30 20:00",1.629,"Working","OW196"
"2023-03-30 21:00",1.63,"Working","OW196"
"2023-03-30 22:00",1.632,"Working","OW196"
"2023-03-30 23:00",1.635,"Working","OW196"
"2023-03-31 00:00",1.638,"Working","OW196"
"2023-03-31 01:00",1.642,"Working","OW196"
"2023-03-31 02:00",1.645,"Working","OW196"
"2023-03-31 03:00",1.648,"Working","OW196"
"2023-03-31 04:00",1.651,"Working","OW196"
"2023-03-31 05:00",1.653,"Working","OW196"
"2023-03-31 06:00",1.654,"Working","OW196"
"2023-03-31 07:00",1.653,"Working","OW196"
"2023-03-31 08:00",1.652,"Working","OW196"
"2023-03-31 09:00",1.65,"Working","OW196"
"2023-03-31 10:00",1.648,"Working","OW196"
"2023-03-31 11:00",1.647,"Working","OW196"
"2023-03-31 12:00",1.647,"Working","OW196"
"2023-03-31 13:00",1.648,"Working","OW196"
"2023-03-31 14:00",1.651,"Working","OW196"
"2023-03-31 15:00",1.654,"Working","OW196"
"2023-03-31 16:00",1.657,"Working","OW196"
"2023-03-31 17:00",1.66,"Working","OW196"
"2023-03-31 18:00",1.662,"Working","OW196"
"2023-03-31 19:00",1.663,"Working","OW196"
"2023-03-31 20:00",1.662,"Working","OW196"
"2023-03-31 21:00",1.662,"Working","OW196"
"2023-03-31 22:00",1.661,"Working","OW196"
"2023-03-31 23:00",1.661,"Working","OW196"
"2023-04-01 00:00",1.662,"Working","OW196"
"2023-04-01 01:00",1.663,"Working","OW196"
"2023-04-01 02:00",1.664,"Working","OW196"
"2023-04-01 03:00",1.666,"Working","OW196"
"2023-04-01 04:00",1.668,"Working","OW196"
"2023-04-01 05:00",1.67,"Working","OW196"
"2023-04-01 06:00",1.67,"Working","OW196"
"2023-04-01 07:00",1.669,"Working","OW196"
"2023-04-01 08:00",1.666,"Working","OW196"
"2023-04-01 09:00",1.664,"Working","OW196"
"2023-04-01 10:00",1.661,"Working","OW196"
"2023-04-01 11:00",1.659,"Working","OW196"
"2023-04-01 12:00",1.658,"Working","OW196"
"2023-04-01 13:00",1.659,"Working","OW196"
"2023-04-01 14:00",1.661,"Working","OW196"
"2023-04-01 15:00",1.664,"Working","OW196"
"2023-04-01 16:00",1.669,"Working","OW196"
"2023-04-01 17:00",1.672,"Working","OW196"
"2023-04-01 18:00",1.676,"Working","OW196"
"2023-04-01 19:00",1.678,"Working","OW196"
"2023-04-01 20:00",1.678,"Working","OW196"
"2023-04-01 21:00",1.678,"Working","OW196"
"2023-04-01 22:00",1.677,"Working","OW196"
"2023-04-01 23:00",1.678,"Working","OW196"
"2023-04-02 00:00",1.679,"Working","OW196"
"2023-04-02 01:00",1.681,"Working","OW196"
"2023-04-02 02:00",1.685,"Working","OW196"
"2023-04-02 03:00",1.69,"Working","OW196"
"2023-04-02 04:00",1.694,"Working","OW196"
"2023-04-02 05:00",1.699,"Working","OW196"
"2023-04-02 06:00",1.701,"Working","OW196"
"2023-04-02 07:00",1.701,"Working","OW196"
"2023-04-02 08:00",1.7,"Working","OW196"
"2023-04-02 09:00",1.698,"Working","OW196"
"2023-04-02 10:00",1.694,"Working","OW196"
"2023-04-02 11:00",1.691,"Working","OW196"
"2023-04-02 12:00",1.689,"Working","OW196"
"2023-04-02 13:00",1.688,"Working","OW196"
"2023-04-02 14:00",1.69,"Working","OW196"
"2023-04-02 15:00",1.693,"Working","OW196"
"2023-04-02 16:00",1.697,"Working","OW196"
"2023-04-02 17:00",1.701,"Working","OW196"
"2023-04-02 18:00",1.706,"Working","OW196"
"2023-04-02 19:00",1.708,"Working","OW196"
"2023-04-02 20:00",1.709,"Working","OW196"
"2023-04-02 21:00",1.708,"Working","OW196"
"2023-04-02 22:00",1.707,"Working","OW196"
"2023-04-02 23:00",1.706,"Working","OW196"
"2023-04-03 00:00",1.707,"Working","OW196"
"2023-04-03 01:00",1.709,"Working","OW196"
"2023-04-03 02:00",1.712,"Working","OW196"
"2023-04-03 03:00",1.717,"Working","OW196"
"2023-04-03 04:00",1.722,"Working","OW196"
"2023-04-03 05:00",1.728,"Working","OW196"
"2023-04-03 06:00",1.732,"Working","OW196"
"2023-04-03 07:00",1.734,"Working","OW196"
"2023-04-03 08:00",1.734,"Working","OW196"
"2023-04-03 09:00",1.733,"Working","OW196"
"2023-04-03 10:00",1.73,"Working","OW196"
"2023-04-03 11:00",1.727,"Working","OW196"
"2023-04-03 12:00",1.724,"Working","OW196"
"2023-04-03 13:00",1.723,"Working","OW196"
"2023-04-03 14:00",1.724,"Working","OW196"
"2023-04-03 15:00",1.727,"Working","OW196"
"2023-04-03 16:00",1.732,"Working","OW196"
"2023-04-03 17:00",1.737,"Working","OW196"
"2023-04-03 18:00",1.741,"Working","OW196"
"2023-04-03 19:00",1.744,"Working","OW196"
"2023-04-03 20:00",1.745,"Working","OW196"
"2023-04-03 21:00",1.744,"Working","OW196"
"2023-04-03 22:00",1.742,"Working","OW196"
"2023-04-03 23:00",1.739,"Working","OW196"
"2023-04-04 00:00",1.737,"Working","OW196"
"2023-04-04 01:00",1.736,"Working","OW196"
"2023-04-04 02:00",1.738,"Working","OW196"
"2023-04-04 03:00",1.741,"Working","OW196"
"2023-04-04 04:00",1.747,"Working","OW196"
"2023-04-04 05:00",1.752,"Working","OW196"
"2023-04-04 06:00",1.757,"Working","OW196"
"2023-04-04 07:00",1.759,"Working","OW196"
"2023-04-04 08:00",1.76,"Working","OW196"
"2023-04-04 09:00",1.759,"Working","OW196"
"2023-04-04 10:00",1.756,"Working","OW196"
"2023-04-04 11:00",1.753,"Working","OW196"
"2023-04-04 12:00",1.75,"Working","OW196"
"2023-04-04 13:00",1.749,"Working","OW196"
"2023-04-04 14:00",1.749,"Working","OW196"
"2023-04-04 15:00",1.752,"Working","OW196"
"2023-04-04 16:00",1.757,"Working","OW196"
"2023-04-04 17:00",1.763,"Working","OW196"
"2023-04-04 18:00",1.769,"Working","OW196"
"2023-04-04 19:00",1.774,"Working","OW196"
"2023-04-04 20:00",1.775,"Working","OW196"
"2023-04-04 21:00",1.775,"Working","OW196"
"2023-04-04 22:00",1.773,"Working","OW196"
"2023-04-04 23:00",1.769,"Working","OW196"
"2023-04-05 00:00",1.766,"Working","OW196"
"2023-04-05 01:00",1.764,"Working","OW196"
"2023-04-05 02:00",1.763,"Working","OW196"
"2023-04-05 03:00",1.766,"Working","OW196"
"2023-04-05 04:00",1.77,"Working","OW196"
"2023-04-05 05:00",1.776,"Working","OW196"
"2023-04-05 06:00",1.782,"Working","OW196"
"2023-04-05 07:00",1.786,"Working","OW196"
"2023-04-05 08:00",1.788,"Working","OW196"
"2023-04-05 09:00",1.788,"Working","OW196"
"2023-04-05 10:00",1.786,"Working","OW196"
"2023-04-05 11:00",1.782,"Working","OW196"
"2023-04-05 12:00",1.779,"Working","OW196"
"2023-04-05 13:00",1.776,"Working","OW196"
"2023-04-05 14:00",1.776,"Working","OW196"
"2023-04-05 15:00",1.778,"Working","OW196"
"2023-04-05 16:00",1.782,"Working","OW196"
"2023-04-05 17:00",1.788,"Working","OW196"
"2023-04-05 18:00",1.795,"Working","OW196"
"2023-04-05 19:00",1.8,"Working","OW196"
"2023-04-05 20:00",1.802,"Working","OW196"
"2023-04-05 21:00",1.803,"Working","OW196"
"2023-04-05 22:00",1.801,"Working","OW196"
"2023-04-05 23:00",1.797,"Working","OW196"
"2023-04-06 00:00",1.792,"Working","OW196"
"2023-04-06 01:00",1.788,"Working","OW196"
"2023-04-06 02:00",1.786,"Working","OW196"
"2023-04-06 03:00",1.787,"Working","OW196"
"2023-04-06 04:00",1.79,"Working","OW196"
"2023-04-06 05:00",1.795,"Working","OW196"
"2023-04-06 06:00",1.801,"Working","OW196"
"2023-04-06 07:00",1.805,"Working","OW196"
"2023-04-06 08:00",1.807,"Working","OW196"
"2023-04-06 09:00",1.806,"Working","OW196"
"2023-04-06 10:00",1.802,"Working","OW196"
"2023-04-06 11:00",1.796,"Working","OW196"
"2023-04-06 12:00",1.789,"Working","OW196"
"2023-04-06 13:00",1.783,"Working","OW196"
"2023-04-06 14:00",1.779,"Working","OW196"
"2023-04-06 15:00",1.777,"Working","OW196"
"2023-04-06 16:00",1.778,"Working","OW196"
"2023-04-06 17:00",1.78,"Working","OW196"
"2023-04-06 18:00",1.783,"Working","OW196"
"2023-04-06 19:00",1.786,"Working","OW196"
"2023-04-06 20:00",1.787,"Working","OW196"
"2023-04-06 21:00",1.785,"Working","OW196"
"2023-04-06 22:00",1.78,"Working","OW196"
"2023-04-06 23:00",1.772,"Working","OW196"
"2023-04-07 00:00",1.763,"Working","OW196"
"2023-04-07 01:00",1.752,"Working","OW196"
"2023-04-07 02:00",1.743,"Working","OW196"
"2023-04-07 03:00",1.735,"Working","OW196"
"2023-04-07 04:00",1.728,"Working","OW196"
"2023-04-07 05:00",1.723,"Working","OW196"
"2023-04-07 06:00",1.718,"Working","OW196"
"2023-04-07 07:00",1.714,"Working","OW196"
"2023-04-07 08:00",1.709,"Working","OW196"
"2023-04-07 09:00",1.702,"Working","OW196"
"2023-04-07 10:00",1.694,"Working","OW196"
"2023-04-07 11:00",1.684,"Working","OW196"
"2023-04-07 12:00",1.673,"Working","OW196"
"2023-04-07 13:00",1.662,"Working","OW196"
"2023-04-07 14:00",1.653,"Working","OW196"
"2023-04-07 15:00",1.646,"Working","OW196"
"2023-04-07 16:00",1.639,"Working","OW196"
"2023-04-07 17:00",1.636,"Working","OW196"
"2023-04-07 18:00",1.633,"Working","OW196"
"2023-04-07 19:00",1.632,"Working","OW196"
"2023-04-07 20:00",1.629,"Working","OW196"
"2023-04-07 21:00",1.623,"Working","OW196"
"2023-04-07 22:00",1.615,"Working","OW196"
"2023-04-07 23:00",1.606,"Working","OW196"
"2023-04-08 00:00",1.594,"Working","OW196"
"2023-04-08 01:00",1.581,"Working","OW196"
"2023-04-08 02:00",1.571,"Working","OW196"
"2023-04-08 03:00",1.561,"Working","OW196"
"2023-04-08 04:00",1.556,"Working","OW196"
"2023-04-08 05:00",1.554,"Working","OW196"
"2023-04-08 06:00",1.553,"Working","OW196"
"2023-04-08 07:00",1.552,"Working","OW196"
"2023-04-08 08:00",1.551,"Working","OW196"
"2023-04-08 09:00",1.549,"Working","OW196"
"2023-04-08 10:00",1.546,"Working","OW196"
"2023-04-08 11:00",1.541,"Working","OW196"
"2023-04-08 12:00",1.534,"Working","OW196"
"2023-04-08 13:00",1.527,"Working","OW196"
"2023-04-08 14:00",1.521,"Working","OW196"
"2023-04-08 15:00",1.518,"Working","OW196"
"2023-04-08 16:00",1.517,"Working","OW196"
"2023-04-08 17:00",1.519,"Working","OW196"
"2023-04-08 18:00",1.523,"Working","OW196"
"2023-04-08 19:00",1.526,"Working","OW196"
"2023-04-08 20:00",1.53,"Working","OW196"
"2023-04-08 21:00",1.532,"Working","OW196"
"2023-04-08 22:00",1.531,"Working","OW196"
"2023-04-08 23:00",1.529,"Working","OW196"
"2023-04-09 00:00",1.524,"Working","OW196"
"2023-04-09 01:00",1.518,"Working","OW196"
"2023-04-09 02:00",1.511,"Working","OW196"
"2023-04-09 03:00",1.505,"Working","OW196"
"2023-04-09 04:00",1.501,"Working","OW196"
"2023-04-09 05:00",1.501,"Working","OW196"
"2023-04-09 06:00",1.501,"Working","OW196"
"2023-04-09 07:00",1.501,"Working","OW196"
"2023-04-09 08:00",1.503,"Working","OW196"
"2023-04-09 09:00",1.503,"Working","OW196"
"2023-04-09 10:00",1.5,"Working","OW196"
"2023-04-09 11:00",1.496,"Working","OW196"
"2023-04-09 12:00",1.49,"Working","OW196"
"2023-04-09 13:00",1.484,"Working","OW196"
"2023-04-09 14:00",1.478,"Working","OW196"
"2023-04-09 15:00",1.473,"Working","OW196"
"2023-04-09 16:00",1.47,"Working","OW196"
"2023-04-09 17:00",1.468,"Working","OW196"
"2023-04-09 18:00",1.469,"Working","OW196"
"2023-04-09 19:00",1.471,"Working","OW196"
"2023-04-09 20:00",1.473,"Working","OW196"
"2023-04-09 21:00",1.473,"Working","OW196"
"2023-04-09 22:00",1.472,"Working","OW196"
"2023-04-09 23:00",1.47,"Working","OW196"
"2023-04-10 00:00",1.466,"Working","OW196"
"2023-04-10 01:00",1.458,"Working","OW196"
"2023-04-10 02:00",1.45,"Working","OW196"
"2023-04-10 03:00",1.443,"Working","OW196"
"2023-04-10 04:00",1.435,"Working","OW196"
"2023-04-10 05:00",1.431,"Working","OW196"
"2023-04-10 06:00",1.427,"Working","OW196"
"2023-04-10 07:00",1.425,"Working","OW196"
"2023-04-10 08:00",1.424,"Working","OW196"
"2023-04-10 09:00",1.422,"Working","OW196"
"2023-04-10 10:00",1.42,"Working","OW196"
"2023-04-10 11:00",1.417,"Working","OW196"
"2023-04-10 12:00",1.412,"Working","OW196"
"2023-04-10 13:00",1.407,"Working","OW196"
"2023-04-10 14:00",1.401,"Working","OW196"
"2023-04-10 15:00",1.397,"Working","OW196"
"2023-04-10 16:00",1.394,"Working","OW196"
"2023-04-10 17:00",1.393,"Working","OW196"
"2023-04-10 18:00",1.395,"Working","OW196"
"2023-04-10 19:00",1.398,"Working","OW196"
"2023-04-10 20:00",1.401,"Working","OW196"
"2023-04-10 21:00",1.404,"Working","OW196"
"2023-04-10 22:00",1.406,"Working","OW196"
"2023-04-10 23:00",1.407,"Working","OW196"
"2023-04-11 00:00",1.404,"Working","OW196"
"2023-04-11 01:00",1.4,"Working","OW196"
"2023-04-11 02:00",1.394,"Working","OW196"
"2023-04-11 03:00",1.388,"Working","OW196"
"2023-04-11 04:00",1.382,"Working","OW196"
"2023-04-11 05:00",1.378,"Working","OW196"
"2023-04-11 06:00",1.375,"Working","OW196"
"2023-04-11 07:00",1.374,"Working","OW196"
"2023-04-11 08:00",1.374,"Working","OW196"
"2023-04-11 09:00",1.375,"Working","OW196"
"2023-04-11 10:00",1.376,"Working","OW196"
"2023-04-11 11:00",1.376,"Working","OW196"
"2023-04-11 12:00",1.376,"Working","OW196"
"2023-04-11 13:00",1.375,"Working","OW196"
"2023-04-11 14:00",1.375,"Working","OW196"
"2023-04-11 15:00",1.375,"Working","OW196"
"2023-04-11 16:00",1.375,"Working","OW196"
"2023-04-11 17:00",1.378,"Working","OW196"
"2023-04-11 18:00",1.383,"Working","OW196"
"2023-04-11 19:00",1.389,"Working","OW196"
"2023-04-11 20:00",1.395,"Working","OW196"
"2023-04-11 21:00",1.402,"Working","OW196"
"2023-04-11 22:00",1.409,"Working","OW196"
"2023-04-11 23:00",1.414,"Working","OW196"
"2023-04-12 00:00",1.416,"Working","OW196"
"2023-04-12 01:00",1.417,"Working","OW196"
"2023-04-12 02:00",1.416,"Working","OW196"
"2023-04-12 03:00",1.413,"Working","OW196"
"2023-04-12 04:00",1.41,"Working","OW196"
"2023-04-12 05:00",1.407,"Working","OW196"
"2023-04-12 06:00",1.405,"Working","OW196"
"2023-04-12 07:00",1.404,"Working","OW196"
"2023-04-12 08:00",1.405,"Working","OW196"
"2023-04-12 09:00",1.406,"Working","OW196"
"2023-04-12 10:00",1.408,"Working","OW196"
"2023-04-12 11:00",1.411,"Working","OW196"
"2023-04-12 12:00",1.413,"Working","OW196"
"2023-04-12 13:00",1.414,"Working","OW196"
"2023-04-12 14:00",1.415,"Working","OW196"
"2023-04-12 15:00",1.416,"Working","OW196"
"2023-04-12 16:00",1.418,"Working","OW196"
"2023-04-12 17:00",1.419,"Working","OW196"
"2023-04-12 18:00",1.422,"Working","OW196"
"2023-04-12 19:00",1.427,"Working","OW196"
"2023-04-12 20:00",1.431,"Working","OW196"
"2023-04-12 21:00",1.437,"Working","OW196"
"2023-04-12 22:00",1.443,"Working","OW196"
"2023-04-12 23:00",1.448,"Working","OW196"
"2023-04-13 00:00",1.452,"Working","OW196"
"2023-04-13 01:00",1.454,"Working","OW196"
"2023-04-13 02:00",1.455,"Working","OW196"
"2023-04-13 03:00",1.454,"Working","OW196"
"2023-04-13 04:00",1.452,"Working","OW196"
"2023-04-13 05:00",1.449,"Working","OW196"
"2023-04-13 06:00",1.447,"Working","OW196"
"2023-04-13 07:00",1.444,"Working","OW196"
"2023-04-13 08:00",1.442,"Working","OW196"
"2023-04-13 09:00",1.442,"Working","OW196"
"2023-04-13 10:00",1.443,"Working","OW196"
"2023-04-13 11:00",1.444,"Working","OW196"
"2023-04-13 12:00",1.447,"Working","OW196"
"2023-04-13 13:00",1.449,"Working","OW196"
"2023-04-13 14:00",1.451,"Working","OW196"
"2023-04-13 15:00",1.453,"Working","OW196"
"2023-04-13 16:00",1.455,"Working","OW196"
"2023-04-13 17:00",1.456,"Working","OW196"
"2023-04-13 18:00",1.457,"Working","OW196"
"2023-04-13 19:00",1.459,"Working","OW196"
"2023-04-13 20:00",1.462,"Working","OW196"
"2023-04-13 21:00",1.465,"Working","OW196"
"2023-04-13 22:00",1.47,"Working","OW196"
"2023-04-13 23:00",1.474,"Working","OW196"
"2023-04-14 00:00",1.478,"Working","OW196"
"2023-04-14 01:00",1.482,"Working","OW196"
"2023-04-14 02:00",1.484,"Working","OW196"
"2023-04-14 03:00",1.485,"Working","OW196"
"2023-04-14 04:00",1.486,"Working","OW196"
"2023-04-14 05:00",1.485,"Working","OW196"
"2023-04-14 06:00",1.482,"Working","OW196"
"2023-04-14 07:00",1.48,"Working","OW196"
"2023-04-14 08:00",1.477,"Working","OW196"
"2023-04-14 09:00",1.476,"Working","OW196"
"2023-04-14 10:00",1.475,"Working","OW196"
"2023-04-14 11:00",1.476,"Working","OW196"
"2023-04-14 12:00",1.478,"Working","OW196"
"2023-04-14 13:00",1.481,"Working","OW196"
"2023-04-14 14:00",1.484,"Working","OW196"
"2023-04-14 15:00",1.488,"Working","OW196"
"2023-04-14 16:00",1.491,"Working","OW196"
"2023-04-14 17:00",1.492,"Working","OW196"
"2023-04-14 18:00",1.494,"Working","OW196"
"2023-04-14 19:00",1.495,"Working","OW196"
"2023-04-14 20:00",1.496,"Working","OW196"
"2023-04-14 21:00",1.497,"Working","OW196"
"2023-04-14 22:00",1.5,"Working","OW196"
"2023-04-14 23:00",1.504,"Working","OW196"
"2023-04-15 00:00",1.508,"Working","OW196"
"2023-04-15 01:00",1.513,"Working","OW196"
"2023-04-15 02:00",1.517,"Working","OW196"
"2023-04-15 03:00",1.521,"Working","OW196"
"2023-04-15 04:00",1.523,"Working","OW196"
"2023-04-15 05:00",1.524,"Working","OW196"
"2023-04-15 06:00",1.523,"Working","OW196"
"2023-04-15 07:00",1.52,"Working","OW196"
"2023-04-15 08:00",1.517,"Working","OW196"
"2023-04-15 09:00",1.514,"Working","OW196"
"2023-04-15 10:00",1.512,"Working","OW196"
"2023-04-15 11:00",1.511,"Working","OW196"
"2023-04-15 12:00",1.512,"Working","OW196"
"2023-04-15 13:00",1.515,"Working","OW196"
"2023-04-15 14:00",1.519,"Working","OW196"
"2023-04-15 15:00",1.523,"Working","OW196"
"2023-04-15 16:00",1.528,"Working","OW196"
"2023-04-15 17:00",1.531,"Working","OW196"
"2023-04-15 18:00",1.533,"Working","OW196"
"2023-04-15 19:00",1.535,"Working","OW196"
"2023-04-15 20:00",1.535,"Working","OW196"
"2023-04-15 21:00",1.536,"Working","OW196"
"2023-04-15 22:00",1.538,"Working","OW196"
"2023-04-15 23:00",1.54,"Working","OW196"
"2023-04-16 00:00",1.543,"Working","OW196"
"2023-04-16 01:00",1.547,"Working","OW196"
"2023-04-16 02:00",1.551,"Working","OW196"
"2023-04-16 03:00",1.556,"Working","OW196"
"2023-04-16 04:00",1.559,"Working","OW196"
"2023-04-16 05:00",1.561,"Working","OW196"
"2023-04-16 06:00",1.559,"Working","OW196"
"2023-04-16 07:00",1.555,"Working","OW196"
"2023-04-16 08:00",1.55,"Working","OW196"
"2023-04-16 09:00",1.544,"Working","OW196"
"2023-04-16 10:00",1.538,"Working","OW196"
"2023-04-16 11:00",1.533,"Working","OW196"
"2023-04-16 12:00",1.53,"Working","OW196"
"2023-04-16 13:00",1.527,"Working","OW196"
"2023-04-16 14:00",1.526,"Working","OW196"
"2023-04-16 15:00",1.526,"Working","OW196"
"2023-04-16 16:00",1.528,"Working","OW196"
"2023-04-16 17:00",1.53,"Working","OW196"
"2023-04-16 18:00",1.53,"Working","OW196"
"2023-04-16 19:00",1.53,"Working","OW196"
"2023-04-16 20:00",1.528,"Working","OW196"
"2023-04-16 21:00",1.525,"Working","OW196"
"2023-04-16 22:00",1.523,"Working","OW196"
"2023-04-16 23:00",1.521,"Working","OW196"
"2023-04-17 00:00",1.521,"Working","OW196"
"2023-04-17 01:00",1.524,"Working","OW196"
"2023-04-17 02:00",1.528,"Working","OW196"
"2023-04-17 03:00",1.533,"Working","OW196"
"2023-04-17 04:00",1.539,"Working","OW196"
"2023-04-17 05:00",1.543,"Working","OW196"
"2023-04-17 06:00",1.545,"Working","OW196"
"2023-04-17 07:00",1.545,"Working","OW196"
"2023-04-17 08:00",1.544,"Working","OW196"
"2023-04-17 09:00",1.54,"Working","OW196"
"2023-04-17 10:00",1.535,"Working","OW196"
"2023-04-17 11:00",1.531,"Working","OW196"
"2023-04-17 12:00",1.527,"Working","OW196"
"2023-04-17 13:00",1.526,"Working","OW196"
"2023-04-17 14:00",1.527,"Working","OW196"
"2023-04-17 15:00",1.53,"Working","OW196"
"2023-04-17 16:00",1.534,"Working","OW196"
"2023-04-17 17:00",1.537,"Working","OW196"
"2023-04-17 18:00",1.539,"Working","OW196"
"2023-04-17 19:00",1.54,"Working","OW196"
"2023-04-17 20:00",1.538,"Working","OW196"
"2023-04-17 21:00",1.534,"Working","OW196"
"2023-04-17 22:00",1.53,"Working","OW196"
"2023-04-17 23:00",1.527,"Working","OW196"
"2023-04-18 00:00",1.524,"Working","OW196"
"2023-04-18 01:00",1.524,"Working","OW196"
"2023-04-18 02:00",1.525,"Working","OW196"
"2023-04-18 03:00",1.529,"Working","OW196"
"2023-04-18 04:00",1.533,"Working","OW196"
"2023-04-18 05:00",1.538,"Working","OW196"
"2023-04-18 06:00",1.542,"Working","OW196"
"2023-04-18 07:00",1.543,"Working","OW196"
"2023-04-18 08:00",1.542,"Working","OW196"
"2023-04-18 09:00",1.539,"Working","OW196"
"2023-04-18 10:00",1.535,"Working","OW196"
"2023-04-18 11:00",1.53,"Working","OW196"
"2023-04-18 12:00",1.527,"Working","OW196"
"2023-04-18 13:00",1.526,"Working","OW196"
"2023-04-18 14:00",1.528,"Working","OW196"
"2023-04-18 15:00",1.533,"Working","OW196"
"2023-04-18 16:00",1.54,"Working","OW196"
"2023-04-18 17:00",1.549,"Working","OW196"
"2023-04-18 18:00",1.556,"Working","OW196"
"2023-04-18 19:00",1.562,"Working","OW196"
"2023-04-18 20:00",1.564,"Working","OW196"
"2023-04-18 21:00",1.564,"Working","OW196"
"2023-04-18 22:00",1.562,"Working","OW196"
"2023-04-18 23:00",1.559,"Working","OW196"
"2023-04-19 00:00",1.556,"Working","OW196"
"2023-04-19 01:00",1.554,"Working","OW196"
"2023-04-19 02:00",1.556,"Working","OW196"
"2023-04-19 03:00",1.558,"Working","OW196"
"2023-04-19 04:00",1.564,"Working","OW196"
"2023-04-19 05:00",1.57,"Working","OW196"
"2023-04-19 06:00",1.575,"Working","OW196"
"2023-04-19 07:00",1.578,"Working","OW196"
"2023-04-19 08:00",1.58,"Working","OW196"
"2023-04-19 09:00",1.579,"Working","OW196"
"2023-04-19 10:00",1.577,"Working","OW196"
"2023-04-19 11:00",1.573,"Working","OW196"
"2023-04-19 12:00",1.57,"Working","OW196"
"2023-04-19 13:00",1.568,"Working","OW196"
"2023-04-19 14:00",1.57,"Working","OW196"
"2023-04-19 15:00",1.573,"Working","OW196"
"2023-04-19 16:00",1.58,"Working","OW196"
"2023-04-19 17:00",1.587,"Working","OW196"
"2023-04-19 18:00",1.595,"Working","OW196"
"2023-04-19 19:00",1.601,"Working","OW196"
"2023-04-19 20:00",1.604,"Working","OW196"
"2023-04-19 21:00",1.605,"Working","OW196"
"2023-04-19 22:00",1.604,"Working","OW196"
"2023-04-19 23:00",1.6,"Working","OW196"
"2023-04-20 00:00",1.595,"Working","OW196"
"2023-04-20 01:00",1.592,"Working","OW196"
"2023-04-20 02:00",1.591,"Working","OW196"
"2023-04-20 03:00",1.593,"Working","OW196"
"2023-04-20 04:00",1.596,"Working","OW196"
"2023-04-20 05:00",1.602,"Working","OW196"
"2023-04-20 06:00",1.608,"Working","OW196"
"2023-04-20 07:00",1.614,"Working","OW196"
"2023-04-20 08:00",1.618,"Working","OW196"
"2023-04-20 09:00",1.619,"Working","OW196"
"2023-04-20 10:00",1.618,"Working","OW196"
"2023-04-20 11:00",1.615,"Working","OW196"
"2023-04-20 12:00",1.611,"Working","OW196"
"2023-04-20 13:00",1.609,"Working","OW196"
"2023-04-20 14:00",1.608,"Working","OW196"
"2023-04-20 15:00",1.611,"Working","OW196"
"2023-04-20 16:00",1.614,"Working","OW196"
"2023-04-20 17:00",1.62,"Working","OW196"
"2023-04-20 18:00",1.627,"Working","OW196"
"2023-04-20 19:00",1.632,"Working","OW196"
"2023-04-20 20:00",1.634,"Working","OW196"
"2023-04-20 21:00",1.633,"Working","OW196"
"2023-04-20 22:00",1.63,"Working","OW196"
"2023-04-20 23:00",1.62,"Working","OW196"
"2023-04-21 00:00",1.605,"Working","OW196"
"2023-04-21 01:00",1.59,"Working","OW196"
"2023-04-21 02:00",1.578,"Working","OW196"
"2023-04-21 03:00",1.569,"Working","OW196"
"2023-04-21 04:00",1.566,"Working","OW196"
"2023-04-21 05:00",1.564,"Working","OW196"
"2023-04-21 06:00",1.564,"Working","OW196"
"2023-04-21 07:00",1.565,"Working","OW196"
"2023-04-21 08:00",1.564,"Working","OW196"
"2023-04-21 09:00",1.562,"Working","OW196"
"2023-04-21 10:00",1.557,"Working","OW196"
"2023-04-21 11:00",1.551,"Working","OW196"
"2023-04-21 12:00",1.544,"Working","OW196"
"2023-04-21 13:00",1.537,"Working","OW196"
"2023-04-21 14:00",1.532,"Working","OW196"
"2023-04-21 15:00",1.529,"Working","OW196"
"2023-04-21 16:00",1.528,"Working","OW196"